TimeAKST,TemperatureF,Dew PointF,Humidity,Sea Level PressureIn,VisibilityMPH,Wind Direction,Wind SpeedMPH,Gust SpeedMPH,PrecipitationIn,Events,Conditions,WindDirDegrees,DateUTC
12:16 AM,44.6,33.8,66,29.50,10.0,SE,19.6,-,N/A,,Overcast,130,2013-12-12 09:16:00
12:36 AM,44.6,33.8,66,29.51,10.0,SE,17.3,25.3,N/A,,Overcast,130,2013-12-12 09:36:00
12:56 AM,44.6,33.8,66,29.51,10.0,SE,18.4,26.5,N/A,,Overcast,140,2013-12-12 09:56:00
1:16 AM,44.6,33.8,66,29.50,10.0,SE,15.0,20.7,N/A,,Overcast,130,2013-12-12 10:16:00
1:36 AM,44.6,33.8,66,29.50,10.0,SE,15.0,23.0,N/A,,Overcast,140,2013-12-12 10:36:00
1:56 AM,42.8,33.8,70,29.50,10.0,SE,16.1,21.9,N/A,,Mostly Cloudy,130,2013-12-12 10:56:00
2:16 AM,44.6,35.6,71,29.50,10.0,SE,15.0,20.7,N/A,,Mostly Cloudy,140,2013-12-12 11:16:00
2:36 AM,42.8,37.4,81,29.50,10.0,ESE,13.8,-,N/A,,Mostly Cloudy,120,2013-12-12 11:36:00
2:56 AM,44.6,33.8,66,29.50,10.0,SE,16.1,21.9,N/A,,Mostly Cloudy,140,2013-12-12 11:56:00
3:16 AM,42.8,33.8,70,29.49,10.0,SE,17.3,24.2,N/A,,Overcast,140,2013-12-12 12:16:00
3:36 AM,42.8,33.8,70,29.49,10.0,SSE,13.8,20.7,0.01,,Overcast,150,2013-12-12 12:36:00
3:56 AM,42.8,33.8,70,29.49,10.0,SE,15.0,20.7,0.02,,Overcast,140,2013-12-12 12:56:00
4:16 AM,42.8,35.6,76,29.49,8.0,SE,13.8,-,0.01,,Overcast,140,2013-12-12 13:16:00
4:36 AM,42.8,35.6,76,29.49,9.0,SE,10.4,-,0.03,,Overcast,130,2013-12-12 13:36:00
4:56 AM,42.8,35.6,76,29.49,10.0,SE,11.5,-,0.05,,Overcast,130,2013-12-12 13:56:00
5:16 AM,42.8,33.8,70,29.49,10.0,ESE,12.7,18.4,N/A,,Overcast,120,2013-12-12 14:16:00
5:36 AM,42.8,33.8,70,29.49,10.0,SE,13.8,-,N/A,,Overcast,140,2013-12-12 14:36:00
5:56 AM,42.8,35.6,76,29.50,10.0,ESE,11.5,19.6,0.01,,Overcast,120,2013-12-12 14:56:00
6:16 AM,42.8,35.6,76,29.50,10.0,East,9.2,-,N/A,,Overcast,100,2013-12-12 15:16:00
6:36 AM,42.8,35.6,76,29.50,10.0,East,11.5,-,N/A,,Overcast,100,2013-12-12 15:36:00
6:56 AM,42.8,35.6,76,29.50,10.0,East,11.5,16.1,N/A,,Overcast,80,2013-12-12 15:56:00
7:16 AM,42.8,35.6,76,29.50,10.0,East,12.7,-,0.01,,Overcast,80,2013-12-12 16:16:00
7:36 AM,41.0,35.6,81,29.50,10.0,ENE,12.7,19.6,0.02,,Overcast,70,2013-12-12 16:36:00
7:56 AM,41.0,35.6,81,29.51,10.0,ENE,12.7,-,0.03,,Overcast,70,2013-12-12 16:56:00
8:16 AM,41.0,35.6,81,29.51,10.0,East,12.7,-,0.03,,Overcast,80,2013-12-12 17:16:00
8:36 AM,41.0,35.6,81,29.52,10.0,East,9.2,-,0.06,,Overcast,90,2013-12-12 17:36:00
8:56 AM,41.0,35.6,81,29.53,7.0,East,11.5,-,0.08,,Overcast,80,2013-12-12 17:56:00
9:16 AM,41.0,35.6,81,29.53,7.0,East,12.7,17.3,0.02,,Overcast,90,2013-12-12 18:16:00
9:36 AM,39.2,35.6,87,29.53,7.0,East,11.5,16.1,0.04,,Overcast,90,2013-12-12 18:36:00
9:56 AM,39.2,33.8,81,29.53,10.0,East,12.7,18.4,0.06,,Overcast,80,2013-12-12 18:56:00
10:16 AM,39.2,35.6,87,29.53,10.0,East,13.8,19.6,0.02,,Overcast,100,2013-12-12 19:16:00
10:36 AM,39.2,35.6,87,29.53,10.0,East,11.5,-,0.02,,Overcast,80,2013-12-12 19:36:00
10:56 AM,39.2,33.8,81,29.54,10.0,East,10.4,16.1,0.02,,Overcast,100,2013-12-12 19:56:00
11:16 AM,39.2,35.6,87,29.55,10.0,East,8.1,-,0.02,,Overcast,100,2013-12-12 20:16:00
11:56 AM,41.0,35.6,81,29.55,10.0,East,9.2,-,0.04,,Overcast,100,2013-12-12 20:56:00
12:16 PM,41.0,35.6,81,29.56,10.0,East,6.9,-,N/A,,Overcast,90,2013-12-12 21:16:00
12:36 PM,39.2,35.6,87,29.56,10.0,East,9.2,16.1,0.01,,Overcast,100,2013-12-12 21:36:00
12:56 PM,39.2,35.6,87,29.56,6.0,East,11.5,-,0.01,,Overcast,90,2013-12-12 21:56:00
1:16 PM,39.2,35.6,87,29.57,6.0,ESE,10.4,-,N/A,,Overcast,110,2013-12-12 22:16:00
1:36 PM,39.2,35.6,87,29.58,6.0,East,6.9,-,N/A,,Overcast,90,2013-12-12 22:36:00
1:56 PM,37.4,30.2,75,29.58,6.0,North,9.2,-,N/A,,Overcast,350,2013-12-12 22:56:00
2:16 PM,35.6,32.0,87,29.60,6.0,NNW,6.9,-,N/A,,Overcast,340,2013-12-12 23:16:00
2:36 PM,35.6,30.2,81,29.60,5.0,NNW,4.6,-,N/A,,Overcast,340,2013-12-12 23:36:00
2:56 PM,35.6,30.2,81,29.61,3.0,NNW,9.2,-,0.01,,Overcast,330,2013-12-12 23:56:00
3:16 PM,33.8,30.2,87,29.62,3.0,NNW,8.1,-,0.01,,Overcast,330,2013-12-13 00:16:00
3:36 PM,33.8,28.4,81,29.63,3.0,NNW,10.4,-,0.01,,Overcast,330,2013-12-13 00:36:00
3:56 PM,32.0,26.6,80,29.64,2.5,NNW,9.2,-,0.01,,Overcast,330,2013-12-13 00:56:00
4:16 PM,32.0,26.6,80,29.66,2.0,NNW,12.7,-,0.02,,Overcast,330,2013-12-13 01:16:00
4:36 PM,32.0,28.4,87,29.67,2.0,WSW,5.8,-,0.04,,Overcast,240,2013-12-13 01:36:00
4:56 PM,33.8,28.4,81,29.68,2.0,West,9.2,-,0.07,,Overcast,280,2013-12-13 01:56:00
5:16 PM,32.0,26.6,80,29.69,2.0,NNW,8.1,-,0.01,,Overcast,330,2013-12-13 02:16:00
5:36 PM,30.2,26.6,86,29.70,2.0,NW,10.4,-,0.02,,Overcast,320,2013-12-13 02:36:00
5:56 PM,30.2,26.6,86,29.71,2.0,NW,10.4,-,0.03,,Overcast,320,2013-12-13 02:56:00
6:16 PM,32.0,26.6,80,29.73,2.0,NW,9.2,-,0.01,,Overcast,320,2013-12-13 03:16:00
6:36 PM,32.0,28.4,87,29.74,2.0,NW,8.1,-,0.01,,Overcast,320,2013-12-13 03:36:00
6:56 PM,30.2,26.6,86,29.76,3.0,NNW,6.9,-,0.01,,Overcast,340,2013-12-13 03:56:00
7:16 PM,32.0,28.4,87,29.77,3.0,NW,8.1,-,N/A,,Overcast,310,2013-12-13 04:16:00
7:36 PM,32.0,28.4,87,29.78,3.0,NNW,5.8,-,N/A,,Overcast,340,2013-12-13 04:36:00
7:56 PM,30.2,26.6,86,29.79,5.0,West,9.2,-,N/A,,Overcast,280,2013-12-13 04:56:00
8:16 PM,30.2,26.6,86,29.81,5.0,NW,9.2,-,N/A,,Overcast,320,2013-12-13 05:16:00
8:36 PM,30.2,26.6,86,29.82,5.0,NNW,11.5,-,N/A,,Overcast,330,2013-12-13 05:36:00
8:56 PM,32.0,28.4,87,29.83,7.0,NNW,4.6,-,N/A,,Overcast,330,2013-12-13 05:56:00
9:16 PM,32.0,26.6,80,29.83,7.0,NW,9.2,-,N/A,,Overcast,310,2013-12-13 06:16:00
9:36 PM,32.0,26.6,80,29.85,7.0,NW,10.4,-,N/A,,Overcast,320,2013-12-13 06:36:00
9:56 PM,32.0,28.4,87,29.86,7.0,Calm,Calm,-,N/A,,Overcast,0,2013-12-13 06:56:00
10:16 PM,32.0,28.4,87,29.86,7.0,Calm,Calm,-,N/A,,Overcast,0,2013-12-13 07:16:00
10:36 PM,32.0,28.4,87,29.87,7.0,Calm,Calm,-,N/A,,Overcast,0,2013-12-13 07:36:00
10:56 PM,33.8,28.4,81,29.89,7.0,NNW,5.8,-,N/A,,Overcast,330,2013-12-13 07:56:00
11:16 PM,32.0,26.6,80,29.90,10.0,NNW,5.8,-,N/A,,Overcast,340,2013-12-13 08:16:00
11:36 PM,33.8,28.4,81,29.90,10.0,Calm,Calm,-,N/A,,Overcast,0,2013-12-13 08:36:00
11:56 PM,33.8,28.4,81,29.91,10.0,NW,6.9,-,N/A,,Overcast,310,2013-12-13 08:56:00